When you browse on this site, cookies collect data to enhance your experience and personalize the content and advertising you see.
Visit our Privacy Policy to learn more. By continuing to use the site, you agree to this use of cookies and data.
  • en Suisse
  • Liste des pays
  • À 7 jours
  • Température de l'eau
  • Carte météo
  • Widgets météo
  • user-avatar
    Se connecter

    Météo par heure à Krzyz

    Ce jour, 25 Mai, Lundi

    Heure Température Précipitation Vent Pression Humidité
    00:00 +9°C° 0 mm 3 m/s 751 mmHg 92%
    01:00 +8°C° 0 mm 4 m/s 751 mmHg 93%
    02:00 +9°C° 0.2 mm 3 m/s 751 mmHg 94%
    03:00 +9°C° 0.2 mm 3 m/s 751 mmHg 95%
    04:00 +9°C° 0.2 mm 3 m/s 751 mmHg 95%
    05:00 +8°C° 1.1 mm 4 m/s 751 mmHg 93%
    06:00 +10°C° 1.1 mm 4 m/s 751 mmHg 92%
    07:00 +9°C° 1.1 mm 5 m/s 751 mmHg 90%
    08:00 +9°C° 0.4 mm 5 m/s 751 mmHg 89%
    09:00 +9°C° 0.4 mm 5 m/s 751 mmHg 88%
    10:00 +10°C° 0.4 mm 4 m/s 751 mmHg 87%
    11:00 +11°C° 0.3 mm 4 m/s 751 mmHg 82%
    12:00 +12°C° 0.3 mm 4 m/s 751 mmHg 78%
    13:00 +13°C° 0.3 mm 3 m/s 751 mmHg 73%
    14:00 +14°C° 0.4 mm 4 m/s 751 mmHg 73%
    15:00 +14°C° 0.4 mm 4 m/s 751 mmHg 73%
    16:00 +14°C° 0.4 mm 4 m/s 751 mmHg 73%
    17:00 +13°C° 0.2 mm 4 m/s 751 mmHg 78%
    18:00 +13°C° 0.2 mm 3 m/s 751 mmHg 83%
    19:00 +12°C° 0.2 mm 3 m/s 752 mmHg 88%
    20:00 +11°C° 0.2 mm 3 m/s 752 mmHg 90%
    21:00 +10°C° 0.2 mm 3 m/s 753 mmHg 92%
    22:00 +10°C° 0.2 mm 3 m/s 753 mmHg 94%
    23:00 +9°C° 0.1 mm 3 m/s 753 mmHg 95%

    Demain, 26 Mai, Mardi

    Heure Température Précipitation Vent Pression Humidité
    00:00 +9°C° 0.1 mm 3 m/s 753 mmHg 96%
    01:00 +9°C° 0.1 mm 3 m/s 754 mmHg 97%
    02:00 +8°C° 0 mm 3 m/s 754 mmHg 97%
    03:00 +7°C° 0 mm 3 m/s 754 mmHg 97%
    04:00 +6°C° 0 mm 4 m/s 754 mmHg 97%
    05:00 +7°C° 0 mm 4 m/s 754 mmHg 95%
    06:00 +8°C° 0 mm 4 m/s 755 mmHg 92%
    07:00 +10°C° 0 mm 4 m/s 755 mmHg 90%
    08:00 +11°C° 0 mm 4 m/s 756 mmHg 84%
    09:00 +13°C° 0 mm 5 m/s 756 mmHg 79%
    10:00 +14°C° 0 mm 5 m/s 756 mmHg 73%
    11:00 +15°C° 0.3 mm 5 m/s 755 mmHg 72%
    12:00 +16°C° 0.3 mm 5 m/s 755 mmHg 70%
    13:00 +17°C° 0.3 mm 6 m/s 755 mmHg 68%
    14:00 +17°C° 0.5 mm 6 m/s 755 mmHg 69%
    15:00 +17°C° 0.5 mm 6 m/s 755 mmHg 69%
    16:00 +17°C° 0.5 mm 6 m/s 755 mmHg 69%
    17:00 +16°C° 0.1 mm 5 m/s 755 mmHg 74%
    18:00 +15°C° 0.1 mm 4 m/s 755 mmHg 78%
    19:00 +14°C° 0.1 mm 3 m/s 755 mmHg 83%
    20:00 +13°C° 0 mm 3 m/s 755 mmHg 85%
    21:00 +11°C° 0 mm 3 m/s 756 mmHg 88%
    22:00 +10°C° 0 mm 3 m/s 756 mmHg 91%
    23:00 +10°C° 0 mm 3 m/s 756 mmHg 92%

    Après-demain, 27 Mai, Mercredi

    Heure Température Précipitation Vent Pression Humidité
    00:00 +9°C° 0 mm 3 m/s 756 mmHg 94%
    01:00 +9°C° 0 mm 3 m/s 755 mmHg 95%
    02:00 +8°C° 0 mm 3 m/s 755 mmHg 95%
    03:00 +8°C° 0 mm 3 m/s 755 mmHg 95%
    04:00 +7°C° 0 mm 2 m/s 755 mmHg 95%
    05:00 +9°C° 0 mm 3 m/s 756 mmHg 91%
    06:00 +10°C° 0 mm 3 m/s 756 mmHg 87%
    07:00 +11°C° 0 mm 3 m/s 756 mmHg 83%
    08:00 +13°C° 0 mm 3 m/s 756 mmHg 76%
    09:00 +15°C° 0 mm 4 m/s 755 mmHg 70%
    10:00 +17°C° 0 mm 4 m/s 755 mmHg 64%
    11:00 +18°C° 0 mm 4 m/s 755 mmHg 61%
    12:00 +19°C° 0 mm 4 m/s 754 mmHg 58%
    13:00 +19°C° 0 mm 4 m/s 754 mmHg 54%
    14:00 +19°C° 0 mm 4 m/s 754 mmHg 55%
    15:00 +19°C° 0 mm 4 m/s 753 mmHg 57%
    16:00 +19°C° 0 mm 4 m/s 753 mmHg 58%
    17:00 +18°C° 0 mm 3 m/s 753 mmHg 64%
    18:00 +17°C° 0 mm 3 m/s 753 mmHg 69%
    19:00 +15°C° 0 mm 2 m/s 752 mmHg 75%
    20:00 +15°C° 0 mm 2 m/s 752 mmHg 74%
    21:00 +14°C° 0 mm 2 m/s 752 mmHg 73%
    22:00 +14°C° 0 mm 2 m/s 752 mmHg 72%
    23:00 +13°C° 0.1 mm 2 m/s 752 mmHg 76%

    28 Mai, Jeudi

    Heure Température Précipitation Vent Pression Humidité
    00:00 +12°C° 0.1 mm 3 m/s 752 mmHg 81%
    01:00 +12°C° 0.1 mm 3 m/s 752 mmHg 86%
    02:00 +11°C° 0.4 mm 4 m/s 752 mmHg 87%
    03:00 +11°C° 0.4 mm 4 m/s 752 mmHg 87%
    04:00 +9°C° 0.4 mm 5 m/s 752 mmHg 88%
    05:00 +9°C° 0.1 mm 5 m/s 752 mmHg 85%
    06:00 +9°C° 0.1 mm 5 m/s 752 mmHg 82%
    07:00 +9°C° 0.1 mm 5 m/s 752 mmHg 79%
    08:00 +10°C° 0 mm 5 m/s 751 mmHg 75%
    09:00 +12°C° 0 mm 5 m/s 751 mmHg 71%
    10:00 +13°C° 0 mm 6 m/s 751 mmHg 66%
    11:00 +14°C° 0 mm 6 m/s 751 mmHg 64%
    12:00 +14°C° 0 mm 6 m/s 750 mmHg 62%
    13:00 +15°C° 0 mm 6 m/s 750 mmHg 60%
    14:00 +15°C° 0.1 mm 6 m/s 750 mmHg 62%
    15:00 +15°C° 0.1 mm 6 m/s 749 mmHg 64%
    16:00 +15°C° 0.1 mm 6 m/s 749 mmHg 66%
    17:00 +14°C° 0.1 mm 5 m/s 749 mmHg 72%
    18:00 +13°C° 0.1 mm 4 m/s 749 mmHg 77%
    19:00 +12°C° 0.1 mm 4 m/s 749 mmHg 83%
    20:00 +11°C° 0 mm 3 m/s 749 mmHg 86%
    21:00 +9°C° 0 mm 3 m/s 750 mmHg 89%
    22:00 +8°C° 0 mm 3 m/s 750 mmHg 92%
    23:00 +7°C° 0 mm 2 m/s 750 mmHg 92%

    29 Mai, Vendredi

    Heure Température Précipitation Vent Pression Humidité
    00:00 +7°C° 0 mm 2 m/s 750 mmHg 92%
    01:00 +6°C° 0 mm 2 m/s 749 mmHg 93%
    02:00 +6°C° 0 mm 2 m/s 749 mmHg 92%
    03:00 +6°C° 0 mm 2 m/s 749 mmHg 92%
    04:00 +6°C° 0 mm 2 m/s 749 mmHg 91%
    05:00 +7°C° 0 mm 2 m/s 749 mmHg 87%
    06:00 +8°C° 0 mm 2 m/s 749 mmHg 83%
    07:00 +10°C° 0 mm 2 m/s 748 mmHg 79%
    08:00 +10°C° 0.2 mm 2 m/s 748 mmHg 75%
    09:00 +11°C° 0.2 mm 3 m/s 748 mmHg 71%
    10:00 +12°C° 0.2 mm 3 m/s 748 mmHg 67%
    11:00 +12°C° 0.2 mm 3 m/s 747 mmHg 65%
    12:00 +13°C° 0.2 mm 3 m/s 747 mmHg 63%
    13:00 +14°C° 0.2 mm 2 m/s 747 mmHg 61%
    14:00 +14°C° 0.3 mm 2 m/s 747 mmHg 62%
    15:00 +14°C° 0.3 mm 2 m/s 746 mmHg 63%
    16:00 +15°C° 0.3 mm 2 m/s 746 mmHg 64%
    17:00 +14°C° 0.2 mm 2 m/s 746 mmHg 69%
    18:00 +13°C° 0.2 mm 2 m/s 746 mmHg 75%
    19:00 +12°C° 0.2 mm 2 m/s 746 mmHg 80%
    20:00 +10°C° 0 mm 2 m/s 746 mmHg 83%
    21:00 +9°C° 0 mm 2 m/s 746 mmHg 85%
    22:00 +8°C° 0 mm 2 m/s 746 mmHg 88%
    23:00 +8°C° 0 mm 3 m/s 746 mmHg 89%

    30 Mai, Samedi

    Heure Température Précipitation Vent Pression Humidité
    00:00 +8°C° 0 mm 3 m/s 746 mmHg 90%
    01:00 +7°C° 0 mm 3 m/s 746 mmHg 90%
    02:00 +7°C° 0.2 mm 3 m/s 746 mmHg 92%
    03:00 +7°C° 0.2 mm 3 m/s 746 mmHg 94%
    04:00 +7°C° 0.2 mm 3 m/s 746 mmHg 96%
    05:00 +8°C° 1.1 mm 3 m/s 746 mmHg 95%
    06:00 +7°C° 1.1 mm 4 m/s 746 mmHg 94%
    07:00 +8°C° 1.1 mm 5 m/s 745 mmHg 93%
    08:00 +8°C° 1.4 mm 5 m/s 745 mmHg 94%
    09:00 +8°C° 1.4 mm 5 m/s 745 mmHg 94%
    10:00 +8°C° 1.4 mm 6 m/s 745 mmHg 95%
    11:00 +8°C° 0.7 mm 5 m/s 745 mmHg 95%
    12:00 +8°C° 0.7 mm 4 m/s 745 mmHg 95%
    13:00 +10°C° 0.7 mm 4 m/s 745 mmHg 95%
    14:00 +11°C° 0.2 mm 4 m/s 745 mmHg 92%
    15:00 +12°C° 0.2 mm 4 m/s 745 mmHg 89%
    16:00 +13°C° 0.2 mm 4 m/s 745 mmHg 86%
    17:00 +12°C° 0.1 mm 3 m/s 745 mmHg 88%
    18:00 +12°C° 0.1 mm 3 m/s 745 mmHg 90%
    19:00 +12°C° 0.1 mm 3 m/s 745 mmHg 91%
    20:00 +12°C° 0 mm 2 m/s 745 mmHg 92%
    21:00 +10°C° 0 mm 2 m/s 745 mmHg 93%
    22:00 +10°C° 0 mm 1 m/s 745 mmHg 93%
    23:00 +10°C° 0 mm 1 m/s 745 mmHg 94%
    Voir plus